TimeCDT,TemperatureF,Dew PointF,Humidity,Sea Level PressureIn,VisibilityMPH,Wind Direction,Wind SpeedMPH,Gust SpeedMPH,PrecipitationIn,Events,Conditions,WindDirDegrees,DateUTC
12:54 AM,52.0,39.0,61,29.85,10.0,SSE,11.5,-,N/A,,Clear,150,2012-10-03 05:54:00
1:54 AM,51.1,39.9,66,29.84,10.0,SSE,10.4,-,N/A,,Clear,150,2012-10-03 06:54:00
2:54 AM,50.0,39.9,68,29.84,10.0,SSE,9.2,-,N/A,,Clear,150,2012-10-03 07:54:00
3:54 AM,48.9,41.0,74,29.83,10.0,SSE,4.6,-,N/A,,Clear,160,2012-10-03 08:54:00
4:54 AM,48.0,42.1,80,29.83,10.0,SSE,6.9,-,N/A,,Clear,160,2012-10-03 09:54:00
5:54 AM,46.9,42.1,83,29.83,10.0,SSE,5.8,-,N/A,,Clear,160,2012-10-03 10:54:00
6:54 AM,46.9,43.0,86,29.84,10.0,SSE,5.8,-,N/A,,Clear,160,2012-10-03 11:54:00
7:54 AM,46.9,43.0,86,29.84,10.0,SSE,8.1,-,N/A,,Clear,160,2012-10-03 12:54:00
8:54 AM,51.1,45.0,80,29.84,10.0,SSE,6.9,-,N/A,,Clear,160,2012-10-03 13:54:00
9:54 AM,60.1,48.9,67,29.83,10.0,SSW,11.5,-,N/A,,Clear,200,2012-10-03 14:54:00
10:54 AM,64.9,50.0,58,29.83,10.0,SSW,11.5,-,N/A,,Clear,200,2012-10-03 15:54:00
11:54 AM,71.1,51.1,49,29.81,10.0,South,11.5,19.6,N/A,,Clear,170,2012-10-03 16:54:00
12:54 PM,77.0,52.0,42,29.79,10.0,South,15.0,-,N/A,,Clear,190,2012-10-03 17:54:00
1:54 PM,80.1,52.0,38,29.75,10.0,South,13.8,20.7,N/A,,Clear,170,2012-10-03 18:54:00
2:54 PM,82.9,51.1,33,29.73,10.0,South,16.1,-,N/A,,Clear,170,2012-10-03 19:54:00
3:54 PM,84.0,48.9,29,29.72,10.0,South,13.8,24.2,N/A,,Clear,180,2012-10-03 20:54:00
4:54 PM,84.0,48.9,29,29.73,10.0,South,19.6,24.2,N/A,,Clear,180,2012-10-03 21:54:00
5:54 PM,82.9,48.9,31,29.75,10.0,South,15.0,24.2,N/A,,Clear,190,2012-10-03 22:54:00
6:54 PM,80.1,48.9,34,29.76,10.0,South,10.4,-,N/A,,Clear,170,2012-10-03 23:54:00
7:54 PM,73.9,51.1,45,29.78,10.0,SSE,11.5,-,N/A,,Clear,150,2012-10-04 00:54:00
8:54 PM,70.0,52.0,53,29.80,10.0,SSE,11.5,-,N/A,,Clear,150,2012-10-04 01:54:00
9:54 PM,68.0,51.1,55,29.81,10.0,South,15.0,-,N/A,,Clear,170,2012-10-04 02:54:00
10:54 PM,66.9,51.1,57,29.83,10.0,South,15.0,21.9,N/A,,Clear,170,2012-10-04 03:54:00
11:54 PM,66.0,52.0,60,29.93,10.0,NNW,25.3,34.5,N/A,,Clear,340,2012-10-04 04:54:00